Tracking 18840 objects as of 20-November-2017
HD Live streaming from Space Station
objects crossing your sky now

FENGYUN 1C DEB

Track FENGYUN 1C DEB now!
10-day predictions


NORAD ID: 31657
Int'l Code: 1999-025CBP
Perigee: 832.7 km
Apogee: 1,106.1 km
Inclination: 102.2 °
Period: 104.3 minutes
Semi major axis: 7340 km
RCS: 0.0116 m2 (small)
Launch date: May 10, 1999
Source: People's Republic of China (PRC)
Launch site: Taiyaun Space Center, China (TSC)

Note: This is SATELLITE DEBRIS
aabbcc
Your satellite tracking list
Your tracking list is empty




NASA's NSSDC Master Catalog

Two Line Element Set (TLE):
1 31657U 99025CBP 17323.01427341 +.00001089 +00000-0 +97086-3 0  9996
2 31657 102.2413 018.4825 0186253 239.0316 119.2408 13.80449638220773
Source of the keplerian elements: AFSPC